| time (UTC) | temp C | wind direction | speed KPH | gust KPH | rain 1hr cm | rain 24hr cm | rain mn cm | humidity % | barometer mb |
| 20260504214505 | 28 | 109 | 16.1 | 25.7 | 0.00 | 0.71 | 0.00 | 64 | 1013.0 |
| 20260504214004 | 28 | 108 | 9.7 | 25.7 | 0.00 | 0.71 | 0.00 | 62 | 1013.0 |
| 20260504213502 | 28 | 95 | 11.3 | 25.7 | 0.00 | 0.71 | 0.00 | 61 | 1013.0 |
| 20260504213004 | 28 | 117 | 14.5 | 24.1 | 0.00 | 0.71 | 0.00 | 62 | 1013.0 |
| 20260504212506 | 28 | 32 | 9.7 | 20.9 | 0.00 | 0.71 | 0.00 | 63 | 1013.0 |
| 20260504212002 | 28 | 96 | 9.7 | 24.1 | 0.00 | 0.71 | 0.00 | 62 | 1013.1 |
| 20260504211503 | 28 | 88 | 12.9 | 24.1 | 0.00 | 0.71 | 0.00 | 62 | 1013.2 |
| 20260504211004 | 28 | 115 | 9.7 | 29.0 | 0.00 | 0.71 | 0.00 | 61 | 1013.1 |
| 20260504210504 | 28 | 40 | 8.0 | 29.0 | 0.00 | 0.71 | 0.00 | 61 | 1013.2 |
| 20260504210008 | 29 | 71 | 14.5 | 27.4 | 0.00 | 0.71 | 0.00 | 60 | 1013.2 |
| 20260504205504 | 29 | 84 | 12.9 | 24.1 | 0.00 | 0.71 | 0.00 | 58 | 1013.1 |
| 20260504205004 | 29 | 122 | 12.9 | 24.1 | 0.00 | 0.71 | 0.00 | 58 | 1013.2 |
| 20260504204506 | 29 | 76 | 12.9 | 24.1 | 0.00 | 0.71 | 0.00 | 58 | 1013.2 |
| 20260504204004 | 29 | 78 | 14.5 | 24.1 | 0.00 | 0.71 | 0.00 | 57 | 1013.2 |
| 20260504203505 | 29 | 61 | 11.3 | 24.1 | 0.00 | 0.71 | 0.00 | 57 | 1013.2 |
| 20260504203006 | 29 | 326 | 9.7 | 24.1 | 0.00 | 0.71 | 0.00 | 58 | 1013.2 |
| 20260504202506 | 29 | 48 | 12.9 | 24.1 | 0.00 | 0.71 | 0.00 | 57 | 1013.2 |
| 20260504202003 | 29 | 98 | 12.9 | 22.5 | 0.00 | 0.71 | 0.00 | 56 | 1013.3 |
| 20260504201507 | 29 | 62 | 12.9 | 25.7 | 0.00 | 0.71 | 0.00 | 59 | 1013.3 |
| 20260504201002 | 29 | 55 | 8.0 | 25.7 | 0.00 | 0.71 | 0.00 | 60 | 1013.4 |
| 20260504200506 | 29 | 93 | 14.5 | 30.6 | 0.00 | 0.71 | 0.00 | 58 | 1013.5 |
| 20260504200010 | 28 | 80 | 16.1 | 30.6 | 0.00 | 0.71 | 0.00 | 60 | 1013.6 |
| 20260504195503 | 29 | 98 | 19.3 | 30.6 | 0.00 | 0.71 | 0.00 | 59 | 1013.7 |
| 20260504195003 | 29 | 32 | 11.3 | 24.1 | 0.00 | 0.71 | 0.00 | 58 | 1013.6 |
| 20260504194509 | 28 | 27 | 9.7 | 24.1 | 0.00 | 0.71 | 0.00 | 60 | 1013.7 |
| 20260504194005 | 28 | 72 | 9.7 | 25.7 | 0.00 | 0.71 | 0.00 | 61 | 1013.7 |
| 20260504193508 | 28 | 71 | 12.9 | 25.7 | 0.00 | 0.71 | 0.00 | 58 | 1013.8 |
| 20260504193008 | 30 | 88 | 8.0 | 24.1 | 0.00 | 0.71 | 0.00 | 57 | 1013.9 |
| 20260504192502 | 29 | 120 | 12.9 | 24.1 | 0.00 | 0.71 | 0.00 | 57 | 1014.0 |
| 20260504192006 | 29 | 58 | 9.7 | 22.5 | 0.00 | 0.71 | 0.00 | 59 | 1014.0 |
| 20260504191508 | 29 | 78 | 9.7 | 24.1 | 0.00 | 0.71 | 0.00 | 59 | 1014.0 |
| 20260504191003 | 28 | 101 | 11.3 | 24.1 | 0.00 | 0.71 | 0.00 | 61 | 1014.2 |
| 20260504190506 | 28 | 67 | 12.9 | 25.7 | 0.00 | 0.71 | 0.00 | 59 | 1014.3 |
| 20260504190008 | 29 | 79 | 9.7 | 25.7 | 0.00 | 0.71 | 0.00 | 59 | 1014.4 |
| 20260504185504 | 30 | 84 | 8.0 | 19.3 | 0.00 | 0.71 | 0.00 | 57 | 1014.4 |
| 20260504185003 | 30 | 61 | 9.7 | 19.3 | 0.00 | 0.71 | 0.00 | 59 | 1014.4 |
| 20260504184510 | 29 | 105 | 6.4 | 22.5 | 0.00 | 0.71 | 0.00 | 59 | 1014.5 |
| 20260504184009 | 28 | 109 | 12.9 | 22.5 | 0.00 | 0.71 | 0.00 | 59 | 1014.6 |
| 20260504183504 | 28 | 60 | 12.9 | 27.4 | 0.00 | 0.71 | 0.00 | 59 | 1014.7 |
| 20260504183009 | 28 | 86 | 14.5 | 27.4 | 0.00 | 0.71 | 0.00 | 58 | 1014.7 |
| 20260504182505 | 29 | 109 | 17.7 | 27.4 | 0.00 | 0.71 | 0.00 | 57 | 1014.7 |
| 20260504182006 | 28 | 132 | 11.3 | 24.1 | 0.00 | 0.71 | 0.00 | 60 | 1014.7 |
| 20260504181508 | 28 | 91 | 9.7 | 24.1 | 0.00 | 0.71 | 0.00 | 59 | 1014.9 |
| 20260504181003 | 28 | 68 | 11.3 | 22.5 | 0.00 | 0.71 | 0.00 | 59 | 1014.9 |
| 20260504180503 | 28 | 119 | 11.3 | 19.3 | 0.00 | 0.71 | 0.00 | 62 | 1015.1 |
| 20260504180011 | 28 | 79 | 8.0 | 24.1 | 0.00 | 0.71 | 0.00 | 61 | 1015.1 |
| 20260504175508 | 28 | 91 | 12.9 | 24.1 | 0.00 | 0.71 | 0.00 | 63 | 1015.1 |
| 20260504175006 | 28 | 98 | 12.9 | 24.1 | 0.00 | 0.71 | 0.00 | 60 | 1015.1 |
| 20260504174508 | 28 | 73 | 9.7 | 27.4 | 0.00 | 0.71 | 0.00 | 62 | 1015.2 |
| 20260504174007 | 28 | 88 | 17.7 | 27.4 | 0.00 | 0.71 | 0.00 | 60 | 1015.3 |
| 20260504173504 | 28 | 117 | 11.3 | 25.7 | 0.00 | 0.71 | 0.00 | 60 | 1015.5 |
| 20260504173010 | 28 | 79 | 11.3 | 19.3 | 0.00 | 0.71 | 0.00 | 60 | 1015.5 |
| 20260504172507 | 28 | 50 | 6.4 | 20.9 | 0.00 | 0.71 | 0.00 | 63 | 1015.5 |
| 20260504172008 | 27 | 84 | 11.3 | 20.9 | 0.00 | 0.71 | 0.00 | 64 | 1015.6 |
| 20260504171512 | 27 | 76 | 11.3 | 19.3 | 0.00 | 0.71 | 0.00 | 64 | 1015.6 |
| 20260504171008 | 27 | 5 | 6.4 | 22.5 | 0.00 | 0.71 | 0.00 | 64 | 1015.7 |
| 20260504170506 | 27 | 350 | 6.4 | 25.7 | 0.00 | 0.71 | 0.00 | 65 | 1015.9 |
| 20260504151006 | 25 | 85 | 9.7 | 24.1 | 0.00 | 0.74 | 0.00 | 72 | 1016.7 |
| 20260504150507 | 25 | 94 | 9.7 | 27.4 | 0.00 | 0.74 | 0.00 | 72 | 1016.7 |
| 20260504141008 | 24 | 32 | 16.1 | 35.4 | 0.00 | 0.74 | 0.00 | 74 | 1016.4 |
| 20260504140507 | 24 | 97 | 11.3 | 24.1 | 0.00 | 0.74 | 0.00 | 74 | 1016.4 |
| 20260504130503 | 23 | 74 | 6.4 | 17.7 | 0.00 | 0.74 | 0.00 | 77 | 1015.9 |
| 20260504110507 | 20 | 27 | 4.8 | 16.1 | 0.00 | 0.74 | 0.00 | 87 | 1015.1 |
| 20260504100509 | 20 | 24 | 4.8 | 14.5 | 0.00 | 0.74 | 0.00 | 90 | 1014.4 |
| 20260504081516 | 20 | 33 | 4.8 | 9.7 | 0.00 | 0.74 | 0.00 | 89 | 1014.7 |
| 20260504081008 | 20 | 22 | 3.2 | 9.7 | 0.00 | 0.74 | 0.00 | 89 | 1014.7 |
| 20260504080507 | 20 | 27 | 3.2 | 11.3 | 0.00 | 0.74 | 0.00 | 89 | 1014.9 |
| 20260504050508 | 20 | 351 | 3.2 | 14.5 | 0.00 | 0.74 | 0.00 | 91 | 1016.0 |
| 20260504050022 | 20 | 355 | 4.8 | 14.5 | 0.00 | 0.74 | 0.00 | 91 | 1015.3 |
| 20260504045511 | 20 | 55 | 4.8 | 12.9 | 0.00 | 0.74 | 0.00 | 91 | 1015.8 |
| 20260504045003 | 20 | 35 | 3.2 | 6.4 | 0.00 | 0.74 | 0.00 | 91 | 1016.5 |
| 20260504044505 | 20 | 28 | 1.6 | 8.0 | 0.00 | 0.74 | 0.00 | 91 | 1016.5 |
| 20260504044003 | 20 | 28 | 1.6 | 8.0 | 0.00 | 0.74 | 0.00 | 91 | 1016.5 |
| 20260504043505 | 20 | 12 | 3.2 | 8.0 | 0.00 | 0.74 | 0.00 | 91 | 1016.5 |
| 20260504043008 | 20 | 26 | 0.0 | 8.0 | 0.00 | 0.74 | 0.00 | 91 | 1016.5 |
| 20260504042504 | 20 | 53 | 1.6 | 8.0 | 0.00 | 0.74 | 0.00 | 91 | 1016.4 |
| 20260504042003 | 20 | 33 | 1.6 | 8.0 | 0.00 | 0.74 | 0.00 | 91 | 1016.4 |
| 20260504041515 | 20 | 15 | 1.6 | 8.0 | 0.00 | 0.74 | 0.00 | 91 | 1016.3 |
| 20260504041007 | 20 | 45 | 1.6 | 8.0 | 0.00 | 0.74 | 0.00 | 91 | 1016.3 |
| 20260504040507 | 20 | 73 | 3.2 | 6.4 | 0.00 | 0.74 | 0.00 | 91 | 1016.3 |
| 20260504040019 | 20 | 76 | 1.6 | 9.7 | 0.00 | 0.74 | 0.00 | 91 | 1016.3 |
| 20260504035510 | 20 | 20 | 1.6 | 14.5 | 0.00 | 0.74 | 0.74 | 91 | 1016.5 |
| 20260504035007 | 20 | 63 | 0.0 | 14.5 | 0.00 | 0.74 | 0.74 | 91 | 1016.5 |
| 20260504034524 | 20 | 24 | 6.4 | 12.9 | 0.00 | 0.74 | 0.74 | 91 | 1016.3 |
| 20260504034011 | 20 | 99 | 3.2 | 11.3 | 0.00 | 0.76 | 0.74 | 91 | 1016.3 |
| 20260504033504 | 20 | 22 | 1.6 | 9.7 | 0.00 | 0.76 | 0.74 | 91 | 1016.4 |
| 20260504033009 | 20 | 22 | 1.6 | 11.3 | 0.00 | 0.76 | 0.74 | 91 | 1016.5 |
| 20260504032503 | 20 | 34 | 0.0 | 12.9 | 0.00 | 0.76 | 0.74 | 91 | 1016.5 |
| 20260504032006 | 20 | 28 | 4.8 | 16.1 | 0.00 | 0.76 | 0.74 | 91 | 1016.3 |
| 20260504031513 | 20 | 65 | 8.0 | 16.1 | 0.00 | 0.76 | 0.74 | 91 | 1016.4 |
| 20260504031008 | 20 | 60 | 4.8 | 16.1 | 0.00 | 0.76 | 0.74 | 91 | 1016.2 |
| 20260504030508 | 20 | 75 | 4.8 | 16.1 | 0.00 | 0.76 | 0.74 | 91 | 1016.4 |
| 20260504030015 | 20 | 51 | 6.4 | 17.7 | 0.00 | 0.76 | 0.74 | 91 | 1016.4 |
| 20260504025508 | 20 | 59 | 8.0 | 17.7 | 0.00 | 0.76 | 0.74 | 92 | 1016.1 |
| 20260504025007 | 20 | 105 | 6.4 | 14.5 | 0.00 | 0.79 | 0.74 | 92 | 1016.4 |
| 20260504024522 | 20 | 38 | 3.2 | 9.7 | 0.00 | 0.79 | 0.74 | 92 | 1016.8 |
| 20260504024007 | 20 | 59 | 3.2 | 9.7 | 0.00 | 0.79 | 0.74 | 92 | 1016.8 |
| 20260504023508 | 20 | 44 | 3.2 | 8.0 | 0.00 | 0.79 | 0.74 | 92 | 1017.0 |
| 20260504023022 | 20 | 70 | 3.2 | 9.7 | 0.00 | 0.81 | 0.74 | 92 | 1016.9 |
| 20260504022506 | 20 | 350 | 1.6 | 9.7 | 0.00 | 0.81 | 0.74 | 92 | 1016.9 |
| 20260504022007 | 20 | 53 | 1.6 | 4.8 | 0.00 | 0.81 | 0.74 | 92 | 1017.0 |
| 20260504021510 | 20 | 55 | 0.0 | 4.8 | 0.00 | 0.81 | 0.74 | 92 | 1016.9 |
| 20260504021007 | 20 | 39 | 0.0 | 4.8 | 0.00 | 0.81 | 0.74 | 92 | 1017.0 |
| 20260504020508 | 20 | 63 | 0.0 | 6.4 | 0.00 | 0.84 | 0.74 | 92 | 1016.9 |
| 20260504020016 | 20 | 53 | 1.6 | 9.7 | 0.03 | 0.89 | 0.74 | 92 | 1016.7 |
| 20260504015509 | 20 | 35 | 3.2 | 9.7 | 0.10 | 0.89 | 0.74 | 92 | 1016.7 |
| 20260504015008 | 20 | 92 | 3.2 | 11.3 | 0.41 | 0.91 | 0.74 | 92 | 1016.6 |
| 20260504014515 | 20 | 87 | 4.8 | 11.3 | 0.71 | 0.91 | 0.74 | 91 | 1016.6 |
| 20260504014009 | 20 | 59 | 3.2 | 9.7 | 0.71 | 0.91 | 0.74 | 91 | 1016.4 |
| 20260504013506 | 20 | 88 | 1.6 | 9.7 | 0.71 | 0.91 | 0.74 | 91 | 1016.5 |
| 20260504013032 | 20 | 82 | 3.2 | 11.3 | 0.71 | 0.91 | 0.74 | 91 | 1016.5 |
| 20260504012507 | 20 | 99 | 4.8 | 16.1 | 0.71 | 0.91 | 0.74 | 91 | 1016.4 |
| 20260504012010 | 20 | 59 | 4.8 | 16.1 | 0.71 | 0.91 | 0.74 | 91 | 1016.3 |
| 20260504011522 | 20 | 34 | 6.4 | 12.9 | 0.71 | 0.91 | 0.74 | 90 | 1016.2 |
| 20260504011004 | 20 | 91 | 4.8 | 17.7 | 0.71 | 0.94 | 0.74 | 90 | 1016.2 |
| 20260504010503 | 20 | 67 | 8.0 | 19.3 | 0.71 | 0.94 | 0.74 | 89 | 1016.2 |
| 20260504010012 | 20 | 82 | 6.4 | 19.3 | 0.69 | 0.91 | 0.71 | 88 | 1016.1 |
| 20260504005506 | 20 | 74 | 8.0 | 19.3 | 0.61 | 0.89 | 0.64 | 87 | 1016.0 |
| 20260504005007 | 21 | 85 | 11.3 | 25.7 | 0.30 | 0.58 | 0.33 | 85 | 1016.1 |
| 20260504004516 | 21 | 17 | 6.4 | 25.7 | 0.00 | 0.30 | 0.03 | 84 | 1015.9 |
| 20260504004008 | 21 | 102 | 8.0 | 24.1 | 0.00 | 0.30 | 0.03 | 83 | 1015.8 |
| 20260504003508 | 21 | 57 | 11.3 | 24.1 | 0.00 | 0.30 | 0.03 | 83 | 1015.7 |
| 20260504003030 | 21 | 69 | 8.0 | 17.7 | 0.00 | 0.36 | 0.03 | 83 | 1015.6 |
| 20260504002509 | 21 | 66 | 11.3 | 17.7 | 0.00 | 0.36 | 0.03 | 83 | 1015.7 |
| 20260504002010 | 21 | 59 | 9.7 | 20.9 | 0.00 | 0.36 | 0.03 | 83 | 1015.6 |
| 20260504001525 | 21 | 71 | 8.0 | 25.7 | 0.00 | 0.36 | 0.03 | 84 | 1015.6 |
| 20260504001008 | 21 | 79 | 11.3 | 25.7 | 0.00 | 0.36 | 0.03 | 83 | 1015.5 |
| 20260504000509 | 21 | 96 | 12.9 | 20.9 | 0.00 | 0.38 | 0.03 | 84 | 1015.5 |
| 20260504000019 | 21 | 78 | 9.7 | 17.7 | 0.00 | 0.43 | 0.03 | 84 | 1015.5 |
| 20260503235509 | 21 | 59 | 4.8 | 20.9 | 0.00 | 0.51 | 0.03 | 84 | 1015.6 |
| 20260503235008 | 21 | 80 | 11.3 | 20.9 | 0.00 | 0.58 | 0.03 | 84 | 1015.4 |
| 20260503234514 | 21 | 99 | 9.7 | 19.3 | 0.00 | 0.58 | 0.03 | 84 | 1015.4 |
| 20260503234007 | 21 | 75 | 6.4 | 22.5 | 0.00 | 0.58 | 0.03 | 85 | 1015.4 |
| 20260503233507 | 21 | 76 | 11.3 | 22.5 | 0.00 | 0.58 | 0.03 | 85 | 1015.4 |
| 20260503233018 | 21 | 11 | 9.7 | 22.5 | 0.00 | 0.58 | 0.03 | 86 | 1015.3 |
| 20260503232507 | 21 | 64 | 12.9 | 22.5 | 0.00 | 0.58 | 0.03 | 86 | 1015.3 |
| 20260503232007 | 21 | 5 | 9.7 | 20.9 | 0.00 | 0.58 | 0.03 | 87 | 1015.3 |
| 20260503231524 | 21 | 52 | 6.4 | 22.5 | 0.00 | 0.58 | 0.03 | 87 | 1015.3 |
| 20260503231007 | 21 | 67 | 9.7 | 25.7 | 0.00 | 0.58 | 0.03 | 86 | 1015.3 |
| 20260503230507 | 21 | 360 | 6.4 | 25.7 | 0.00 | 0.58 | 0.03 | 86 | 1015.2 |
| 20260503230026 | 21 | 24 | 11.3 | 25.7 | 0.00 | 0.58 | 0.03 | 86 | 1015.2 |
| 20260503225509 | 21 | 80 | 11.3 | 24.1 | 0.00 | 0.58 | 0.03 | 86 | 1015.1 |
| 20260503225009 | 21 | 346 | 8.0 | 22.5 | 0.00 | 0.58 | 0.03 | 86 | 1015.0 |
| 20260503224514 | 21 | 89 | 8.0 | 22.5 | 0.00 | 0.58 | 0.03 | 86 | 1015.0 |
| 20260503224004 | 21 | 71 | 9.7 | 22.5 | 0.00 | 0.61 | 0.03 | 86 | 1015.0 |
| 20260503223507 | 21 | 20 | 8.0 | 20.9 | 0.00 | 0.66 | 0.03 | 86 | 1015.0 |
| 20260503223018 | 21 | 59 | 8.0 | 22.5 | 0.00 | 0.71 | 0.03 | 86 | 1014.9 |
| 20260503222506 | 22 | 76 | 8.0 | 22.5 | 0.00 | 0.97 | 0.03 | 86 | 1014.9 |
| 20260503222006 | 22 | 46 | 8.0 | 20.9 | 0.00 | 0.97 | 0.03 | 86 | 1014.8 |
| 20260503221522 | 22 | 33 | 11.3 | 20.9 | 0.00 | 0.97 | 0.03 | 85 | 1014.8 |
| 20260503221012 | 22 | 43 | 4.8 | 20.9 | 0.00 | 0.97 | 0.03 | 85 | 1014.8 |
| 20260503220508 | 22 | 30 | 6.4 | 20.9 | 0.00 | 0.97 | 0.03 | 85 | 1014.9 |
| 20260503220026 | 22 | 20 | 9.7 | 20.9 | 0.00 | 0.97 | 0.03 | 85 | 1014.9 |
| 20260503215512 | 22 | 39 | 11.3 | 20.9 | 0.00 | 0.97 | 0.03 | 84 | 1015.0 |
| 20260503215007 | 22 | 349 | 4.8 | 17.7 | 0.00 | 0.97 | 0.03 | 84 | 1015.0 |